AMX133 MMLO-MMMX

Flight info

Callsign AMX133
Flight time 0h 34m
Altitude 29000
Route UKIRO1D UKIRO UT130 DARAN DARAN3A
Aircraft B738/M-SDE2E3FGHIRWXY/LB1

Departure

Time 2026-04-16 02:02
Airport Guanajuato International Airport (MMLO)

Arrival

Time 2026-04-16 02:36
Airport Mexico City Benito Juárez International Airport (MMMX)
Time Latitude Longitude Altitude Speed Heading
2026-04-16 01:54 20.98748 -101.47863 5919 ft 0 kts 129°
2026-04-16 01:55 20.98743 -101.47857 5919 ft 2 kts 129°
2026-04-16 01:55 20.98730 -101.47839 5919 ft 3 kts 128°
2026-04-16 01:56 20.98712 -101.47815 5918 ft 5 kts 129°
2026-04-16 01:56 20.98683 -101.47776 5918 ft 6 kts 129°
2026-04-16 01:56 20.98659 -101.47703 5919 ft 14 kts 70°
2026-04-16 01:56 20.98715 -101.47637 5921 ft 10 kts 45°
2026-04-16 01:57 20.98761 -101.47591 5921 ft 7 kts 43°
2026-04-16 01:57 20.98795 -101.47546 5921 ft 6 kts 69°
2026-04-16 01:57 20.98779 -101.47495 5920 ft 9 kts 129°
2026-04-16 01:57 20.98716 -101.47424 5919 ft 16 kts 134°
2026-04-16 01:58 20.98626 -101.47326 5917 ft 18 kts 135°
2026-04-16 01:58 20.98539 -101.47229 5917 ft 17 kts 133°
2026-04-16 01:58 20.98457 -101.47138 5917 ft 16 kts 134°
2026-04-16 01:58 20.98374 -101.47048 5915 ft 16 kts 135°
2026-04-16 01:59 20.98330 -101.47001 5915 ft 3 kts 135°
2026-04-16 01:59 20.98309 -101.46980 5914 ft 4 kts 142°
2026-04-16 01:59 20.98273 -101.46970 5913 ft 5 kts 176°
2026-04-16 01:59 20.98233 -101.46967 5912 ft 5 kts 163°
2026-04-16 02:00 20.98212 -101.46932 5911 ft 6 kts 82°
2026-04-16 02:00 20.98238 -101.46912 5912 ft 3 kts 349°
2026-04-16 02:00 20.98251 -101.46918 5912 ft 0 kts 327°
2026-04-16 02:01 20.98252 -101.46919 5912 ft 3 kts 327°
2026-04-16 02:01 20.98413 -101.47097 5916 ft 75 kts 314°
2026-04-16 02:01 20.98970 -101.47714 5924 ft 152 kts 314°
2026-04-16 02:01 20.99832 -101.48628 6243 ft 190 kts 315°
2026-04-16 02:02 21.00821 -101.49626 6975 ft 198 kts 316°
2026-04-16 02:02 21.01835 -101.50620 7687 ft 209 kts 314°
2026-04-16 02:02 21.02963 -101.51714 8273 ft 228 kts 327°
2026-04-16 02:02 21.04049 -101.52153 8734 ft 240 kts 353°
2026-04-16 02:03 21.05716 -101.51832 9400 ft 255 kts 27°
2026-04-16 02:03 21.07080 -101.50568 10008 ft 273 kts 53°
2026-04-16 02:03 21.07836 -101.48689 10927 ft 278 kts 76°
2026-04-16 02:04 21.08324 -101.44504 12590 ft 299 kts 84°
2026-04-16 02:04 21.08523 -101.42244 13223 ft 316 kts 84°
2026-04-16 02:04 21.08750 -101.39863 13908 ft 330 kts 83°
2026-04-16 02:04 21.09001 -101.37403 14756 ft 338 kts 83°
2026-04-16 02:05 21.09259 -101.34918 15729 ft 341 kts 82°
2026-04-16 02:05 21.09512 -101.32387 16586 ft 349 kts 84°
2026-04-16 02:05 21.09638 -101.29775 17536 ft 353 kts 89°
2026-04-16 02:05 21.09566 -101.27170 18333 ft 360 kts 93°
2026-04-16 02:06 21.09378 -101.24477 19138 ft 366 kts 95°
2026-04-16 02:06 21.09151 -101.21770 19918 ft 372 kts 96°
2026-04-16 02:06 21.08922 -101.19010 20664 ft 376 kts 96°
2026-04-16 02:06 21.08700 -101.16206 21354 ft 382 kts 96°
2026-04-16 02:07 21.08483 -101.13339 22014 ft 387 kts 96°
2026-04-16 02:07 21.08274 -101.10490 22624 ft 393 kts 96°
2026-04-16 02:07 21.08062 -101.07576 23295 ft 397 kts 96°
2026-04-16 02:07 21.07849 -101.04613 23916 ft 403 kts 96°
2026-04-16 02:08 21.07633 -101.01620 24555 ft 407 kts 97°
2026-04-16 02:08 21.07306 -100.98607 25193 ft 409 kts 102°
2026-04-16 02:08 21.06632 -100.95653 25813 ft 409 kts 112°
2026-04-16 02:08 21.05489 -100.92876 26346 ft 410 kts 123°
2026-04-16 02:09 21.03948 -100.90320 26982 ft 408 kts 130°
2026-04-16 02:09 21.02219 -100.87888 27516 ft 411 kts 133°
2026-04-16 02:09 21.00430 -100.85510 28166 ft 412 kts 134°
2026-04-16 02:09 20.98623 -100.83130 28615 ft 418 kts 134°
2026-04-16 02:10 20.96799 -100.80701 29176 ft 419 kts 134°
2026-04-16 02:10 20.95584 -100.79069 29296 ft 426 kts 133°
2026-04-16 02:10 20.91320 -100.73241 29343 ft 422 kts 133°
2026-04-16 02:11 20.87767 -100.68308 29353 ft 418 kts 133°
2026-04-16 02:11 20.84191 -100.63336 29359 ft 421 kts 133°
2026-04-16 02:12 20.81146 -100.59096 29364 ft 420 kts 133°
2026-04-16 02:12 20.77567 -100.54118 29371 ft 423 kts 133°
2026-04-16 02:13 20.74002 -100.49162 29364 ft 421 kts 132°
2026-04-16 02:13 20.70418 -100.44185 29360 ft 421 kts 132°
2026-04-16 02:14 20.66857 -100.39245 29330 ft 421 kts 132°
2026-04-16 02:14 20.63275 -100.34320 29313 ft 419 kts 133°
2026-04-16 02:15 20.59681 -100.29341 29325 ft 421 kts 132°
2026-04-16 02:15 20.56152 -100.24430 29308 ft 418 kts 132°
2026-04-16 02:16 20.52593 -100.19492 29317 ft 419 kts 132°
2026-04-16 02:16 20.49035 -100.14572 29332 ft 419 kts 132°
2026-04-16 02:17 20.45489 -100.09674 29367 ft 419 kts 132°
2026-04-16 02:17 20.41913 -100.04739 29403 ft 419 kts 132°
2026-04-16 02:18 20.38361 -99.99838 29420 ft 417 kts 132°
2026-04-16 02:18 20.34820 -99.94959 29458 ft 419 kts 132°
2026-04-16 02:19 20.31255 -99.90059 29470 ft 418 kts 132°
2026-04-16 02:19 20.29470 -99.87605 29322 ft 413 kts 132°
2026-04-16 02:19 20.27708 -99.85179 28646 ft 415 kts 132°
2026-04-16 02:20 20.25990 -99.82814 28567 ft 401 kts 131°
2026-04-16 02:20 20.24299 -99.80492 28164 ft 397 kts 133°
2026-04-16 02:20 20.22490 -99.78217 27098 ft 408 kts 139°
2026-04-16 02:20 20.20287 -99.76308 26122 ft 410 kts 151°
2026-04-16 02:21 20.17872 -99.74786 25877 ft 396 kts 154°
2026-04-16 02:21 20.15483 -99.73350 25394 ft 393 kts 154°
2026-04-16 02:21 20.13064 -99.71927 24534 ft 399 kts 155°
2026-04-16 02:21 20.10598 -99.70622 23721 ft 402 kts 158°
2026-04-16 02:22 20.08096 -99.69330 23593 ft 388 kts 155°
2026-04-16 02:22 20.05770 -99.68000 23506 ft 375 kts 154°
2026-04-16 02:22 20.03425 -99.66661 22399 ft 391 kts 155°
2026-04-16 02:22 20.00996 -99.65378 21909 ft 387 kts 156°
2026-04-16 02:23 19.98648 -99.64094 21914 ft 370 kts 155°
2026-04-16 02:23 19.96411 -99.62852 21706 ft 362 kts 155°
2026-04-16 02:23 19.94168 -99.61616 20982 ft 371 kts 154°
2026-04-16 02:23 19.91855 -99.60305 20112 ft 382 kts 154°
2026-04-16 02:24 19.89523 -99.58997 19622 ft 379 kts 153°
2026-04-16 02:24 19.87226 -99.57667 19468 ft 367 kts 153°
2026-04-16 02:24 19.85010 -99.56422 19181 ft 360 kts 152°
2026-04-16 02:24 19.82825 -99.55091 18498 ft 367 kts 150°
2026-04-16 02:25 19.80605 -99.53675 17709 ft 376 kts 149°
2026-04-16 02:25 19.78342 -99.52290 17235 ft 373 kts 151°
2026-04-16 02:25 19.76045 -99.51047 16999 ft 363 kts 155°
2026-04-16 02:25 19.73841 -99.49814 16609 ft 359 kts 148°
2026-04-16 02:26 19.71782 -99.48285 15944 ft 365 kts 140°
2026-04-16 02:26 19.69866 -99.46485 15350 ft 367 kts 136°
2026-04-16 02:26 19.68039 -99.44639 14939 ft 363 kts 135°
2026-04-16 02:26 19.66170 -99.42780 14035 ft 374 kts 136°
2026-04-16 02:27 19.64191 -99.40932 12212 ft 408 kts 138°
2026-04-16 02:27 19.61988 -99.39050 11955 ft 388 kts 141°
2026-04-16 02:27 19.59944 -99.37465 12242 ft 357 kts 142°
2026-04-16 02:27 19.57932 -99.35959 11863 ft 351 kts 144°
2026-04-16 02:28 19.56054 -99.34339 11397 ft 345 kts 129°
2026-04-16 02:28 19.54797 -99.32213 10964 ft 337 kts 109°
2026-04-16 02:28 19.54083 -99.29887 10535 ft 333 kts 110°
2026-04-16 02:28 19.52879 -99.27828 10343 ft 323 kts 133°
2026-04-16 02:29 19.51080 -99.26508 10341 ft 309 kts 157°
2026-04-16 02:29 19.49045 -99.26060 10374 ft 290 kts 173°
2026-04-16 02:29 19.47284 -99.25894 10370 ft 272 kts 175°
2026-04-16 02:29 19.47073 -99.25879 10369 ft 270 kts 175°
2026-04-16 02:30 19.45457 -99.25808 10357 ft 255 kts 175°
2026-04-16 02:30 19.43768 -99.25599 10372 ft 236 kts 168°
2026-04-16 02:31 19.42248 -99.25238 10439 ft 210 kts 160°
2026-04-16 02:31 19.40944 -99.24669 10386 ft 194 kts 153°
2026-04-16 02:31 19.39723 -99.24094 10255 ft 193 kts 156°
2026-04-16 02:31 19.38498 -99.23549 10219 ft 191 kts 150°
2026-04-16 02:32 19.37392 -99.22845 10418 ft 174 kts 142°
2026-04-16 02:32 19.36539 -99.21987 10471 ft 169 kts 122°
2026-04-16 02:32 19.36108 -99.20882 10579 ft 163 kts 87°
2026-04-16 02:32 19.36263 -99.19656 10673 ft 180 kts 78°
2026-04-16 02:33 19.36522 -99.18406 10725 ft 161 kts 70°
2026-04-16 02:33 19.37006 -99.17359 10289 ft 160 kts 55°
2026-04-16 02:33 19.37673 -99.16409 9861 ft 159 kts 50°
2026-04-16 02:33 19.38389 -99.15540 9428 ft 160 kts 47°
2026-04-16 02:34 19.39139 -99.14640 8912 ft 164 kts 46°
2026-04-16 02:34 19.39934 -99.13801 8528 ft 160 kts 45°
2026-04-16 02:34 19.40601 -99.12869 8102 ft 160 kts 58°
2026-04-16 02:34 19.41153 -99.11881 7875 ft 150 kts 56°
2026-04-16 02:35 19.41682 -99.10944 7703 ft 148 kts 57°
2026-04-16 02:35 19.42219 -99.09999 7590 ft 149 kts 56°
2026-04-16 02:35 19.42750 -99.09067 7450 ft 148 kts 56°
2026-04-16 02:35 19.43241 -99.08184 7360 ft 130 kts 57°
2026-04-16 02:36 19.43718 -99.07417 7344 ft 111 kts 60°
2026-04-16 02:36 19.44035 -99.06796 7345 ft 84 kts 63°
2026-04-16 02:36 19.44214 -99.06438 7338 ft 25 kts 63°
2026-04-16 02:36 19.44254 -99.06360 7336 ft 6 kts 61°
2026-04-16 02:37 19.44262 -99.06345 7336 ft 0 kts 60°
2026-04-16 02:37 19.44257 -99.06354 7336 ft 3 kts 60°
2026-04-16 02:37 19.44264 -99.06340 7335 ft 9 kts 70°
2026-04-16 02:37 19.44240 -99.06329 7335 ft 4 kts 196°
2026-04-16 02:38 19.44214 -99.06339 7335 ft 3 kts 203°
2026-04-16 02:38 19.44192 -99.06351 7336 ft 3 kts 207°
2026-04-16 02:38 19.44168 -99.06363 7336 ft 6 kts 207°
2026-04-16 02:38 19.44050 -99.06426 7335 ft 25 kts 206°
2026-04-16 02:39 19.43898 -99.06508 7336 ft 23 kts 208°
2026-04-16 02:39 19.43762 -99.06586 7338 ft 21 kts 208°
2026-04-16 02:39 19.43636 -99.06657 7339 ft 19 kts 208°
2026-04-16 02:39 19.43522 -99.06720 7340 ft 17 kts 208°
2026-04-16 02:40 19.43412 -99.06781 7340 ft 17 kts 207°
2026-04-16 02:40 19.43321 -99.06851 7340 ft 15 kts 229°
2026-04-16 02:40 19.43263 -99.06943 7340 ft 14 kts 238°
2026-04-16 02:40 19.43217 -99.07032 7340 ft 13 kts 249°
2026-04-16 02:41 19.43190 -99.07119 7340 ft 11 kts 249°
2026-04-16 02:41 19.43156 -99.07190 7340 ft 10 kts 241°
2026-04-16 02:41 19.43123 -99.07252 7341 ft 9 kts 241°
2026-04-16 02:41 19.43082 -99.07329 7342 ft 12 kts 239°
2026-04-16 02:42 19.43044 -99.07396 7345 ft 9 kts 239°
2026-04-16 02:42 19.43012 -99.07455 7344 ft 10 kts 239°
2026-04-16 02:42 19.42954 -99.07558 7345 ft 17 kts 239°
2026-04-16 02:42 19.42893 -99.07667 7345 ft 16 kts 239°
2026-04-16 02:43 19.42835 -99.07773 7345 ft 16 kts 240°
2026-04-16 02:43 19.42784 -99.07868 7345 ft 11 kts 236°
2026-04-16 02:43 19.42735 -99.07873 7345 ft 6 kts 155°
2026-04-16 02:43 19.42675 -99.07838 7345 ft 14 kts 149°
2026-04-16 02:44 19.42603 -99.07846 7345 ft 10 kts 228°
2026-04-16 02:44 19.42565 -99.07910 7345 ft 9 kts 239°
2026-04-16 02:44 19.42531 -99.07970 7345 ft 9 kts 240°
2026-04-16 02:44 19.42498 -99.08030 7346 ft 8 kts 240°
2026-04-16 02:45 19.42457 -99.08106 7347 ft 13 kts 240°
2026-04-16 02:45 19.42406 -99.08185 7346 ft 13 kts 226°
2026-04-16 02:45 19.42327 -99.08205 7346 ft 11 kts 175°
2026-04-16 02:45 19.42308 -99.08202 7346 ft 4 kts 175°
2026-04-16 02:46 19.42277 -99.08191 7346 ft 4 kts 150°
2026-04-16 02:46 19.42263 -99.08172 7346 ft 3 kts 120°
2026-04-16 02:46 19.42252 -99.08152 7346 ft 2 kts 121°
2026-04-16 02:46 19.42243 -99.08136 7346 ft 2 kts 121°
2026-04-16 02:47 19.42241 -99.08133 7346 ft 0 kts 121°